This demonstration page uses our WeatherBlox Daily Observations layout. Learn more.

Left ArrowRight Arrow

31.84235, -102.49876

Hourly Observations for March 24, 2015

Temp ( °F °C ) Dew Point ( °F °C ) Humidity (%) Winds ( mph kmh ) Pressure ( in mb ) Visibility ( mi km ) Precip ( " mm )
12:53 am 00:53 Clear 66 18.9 49 9.4 54 54 S 20 31 29.86 1011 10 16 0.00 0.00
1:53 am 01:53 Clear 63 17.2 50 10 63 63 SSW 14 22 29.86 1011 10 16 0.00 0.00
2:53 am 02:53 Clear 62 16.7 49 9.4 62 62 SSW 15 24 29.85 1011 10 16 0.00 0.00
3:53 am 03:53 Clear 62 16.7 50 10 65 65 SSW 15 24 29.83 1010 10 16 0.00 0.00
4:53 am 04:53 Clear 61 16.1 49 9.4 65 65 SSW 13 20 29.82 1010 10 16 0.00 0.00
5:53 am 05:53 Clear 59 15 49 9.4 69 69 SSW 12 19 29.82 1010 10 16 0.00 0.00
6:53 am 06:53 Clear 56 13.3 49 9.4 77 77 SSW 10 17 29.85 1011 10 16 0.00 0.00
7:53 am 07:53 Sunny 55 12.8 48 8.9 77 77 SSW 8 13 29.87 1012 10 16 0.00 0.00
8:53 am 08:53 Sunny 59 15 48 8.9 67 67 SSW 8 13 29.88 1012 10 16 0.00 0.00
9:53 am 09:53 Sunny 65 18.3 47 8.3 52 52 SW 12 19 29.91 1013 10 16 0.00 0.00
10:53 am 10:53 Sunny 69 20.6 44 6.7 41 41 WNW 7 11 29.93 1014 10 16 0.00 0.00
11:53 am 11:53 Sunny 73 22.8 44 6.7 35 35 NW 8 13 29.91 1013 10 16 0.00 0.00
12:53 pm 12:53 Sunny 79 26.1 34 1.1 20 20 N 8 13 29.89 1012 10 16 0.00 0.00
1:53 pm 13:53 Sunny 80 26.7 29 -1.7 15 15 N 6 9 29.88 1012 10 16 0.00 0.00
2:53 pm 14:53 Sunny 80 26.7 30 -1.1 16 16 VRB 7 11 29.86 1011 10 16 0.00 0.00
3:53 pm 15:53 Sunny 80 26.7 26 -3.3 14 14 WNW 6 9 29.84 1011 10 16 0.00 0.00
4:53 pm 16:53 Sunny 81 27.2 26 -3.3 13 13 SW 8 13 29.83 1010 10 16 0.00 0.00
5:53 pm 17:53 Sunny 81 27.2 27 -2.8 14 14 W 8 13 29.81 1010 10 16 0.00 0.00
6:53 pm 18:53 Sunny 80 26.7 24 -4.4 13 13 SW 7 11 29.81 1010 10 16 0.00 0.00
7:53 pm 19:53 Sunny 77 25 28 -2.2 16 16 WSW 3 6 29.81 1010 10 16 0.00 0.00
8:53 pm 20:53 Clear 73 22.8 30 -1.1 20 20 Calm 29.82 1010 10 16 0.00 0.00
9:53 pm 21:53 Clear 72 22.2 28 -2.2 19 19 S 5 7 29.82 1010 10 16 0.00 0.00
10:53 pm 22:53 Clear 69 20.6 31 -0.6 24 24 S 5 7 29.83 1010 10 16 0.00 0.00
11:53 pm 23:53 Clear 64 17.8 34 1.1 33 33 SSE 7 11 29.83 1010 10 16 0.00 0.00

Powered by AerisWeather